DW4070 Weather Reports


Display with metric or nautical units.
time (UTC)temp
F
wind
direction
speed
MPH
gust
MPH
rain 1hr
in
rain 24hr
in
rain mn
in
humidity
%
barometer
mb
20260506190043 60 262 0.0 3.0 0.01 0.05 0.05 90 1008.7
20260506184541 60 240 0.0 4.0 0.02 0.05 0.05 89 1008.9
20260506183040 60 189 0.0 6.0 0.02 0.05 0.05 89 1009.1
20260506181544 60 281 2.0 4.0 0.03 0.05 0.05 89 1009.4
20260506180046 60 281 0.0 2.0 0.03 0.04 0.04 89 1009.6
20260506174537 60 281 0.0 2.0 0.03 0.03 0.03 89 1009.4
20260506173041 60 221 0.0 3.0 0.03 0.03 0.03 88 1009.4
20260506171535 61 243 0.0 3.0 0.02 0.02 0.02 86 1009.6
20260506170032 61 263 0.0 2.0 0.01 0.01 0.01 85 1009.8
20260506164530 62 259 0.0 4.0 0.00 0.00 0.00 81 1010.2
20260506163028 63 263 0.0 5.0 0.00 0.00 0.00 77 1010.7
20260506161533 64 265 1.0 5.0 0.00 0.00 0.00 75 1010.5
20260506160028 65 235 0.0 5.0 0.00 0.00 0.00 75 1010.6
20260506154526 65 183 1.0 9.0 0.00 0.00 0.00 72 1010.6
20260506153024 66 275 0.0 8.0 0.00 0.00 0.00 73 1010.8
20260506151524 66 275 0.0 8.0 0.00 0.00 0.00 71 1010.7
20260506150023 66 261 1.0 5.0 0.00 0.00 0.00 73 1010.8
20260506144522 66 263 1.0 4.0 0.00 0.00 0.00 72 1010.6
20260506143026 66 203 1.0 6.0 0.00 0.00 0.00 73 1010.7
20260506141523 66 268 1.0 7.0 0.00 0.00 0.00 73 1010.9
20260506140020 65 281 1.0 7.0 0.00 0.00 0.00 74 1011.0
20260506134515 64 272 2.0 11.0 0.00 0.00 0.00 76 1011.0
20260506133011 63 281 1.0 6.0 0.00 0.00 0.00 78 1011.1
20260506131508 62 268 0.0 3.0 0.00 0.00 0.00 81 1010.8
20260506130006 61 150 0.0 6.0 0.00 0.00 0.00 81 1010.8
20260506124505 61 264 1.0 5.0 0.00 0.00 0.00 81 1010.8
20260506123002 61 210 0.0 2.0 0.00 0.00 0.00 82 1011.0
20260506121501 60 266 1.0 5.0 0.00 0.00 0.00 84 1011.2
20260506120111 58 167 2.0 5.0 0.00 0.00 0.00 88 1011.5
20260506114559 56 163 0.0 3.0 0.00 0.00 0.00 93 1011.5
20260506113100 55 173 0.0 2.0 0.00 0.00 0.00 95 1011.3
20260506111559 53 263 0.0 0.0 0.00 0.00 0.00 94 1011.3
20260506110057 52 263 0.0 0.0 0.00 0.00 0.00 94 1011.6
20260506104559 52 263 0.0 0.0 0.00 0.00 0.00 93 1011.4
20260506103055 51 263 0.0 0.0 0.00 0.00 0.00 93 1011.4
20260506101553 51 263 0.0 0.0 0.00 0.00 0.00 93 1011.3
20260506094605 52 263 0.0 0.0 0.00 0.00 0.00 92 1011.1
20260506093048 52 263 0.0 0.0 0.00 0.00 0.00 92 1011.3
20260506091547 52 263 0.0 0.0 0.00 0.00 0.00 92 1011.2
20260506090045 52 263 0.0 0.0 0.00 0.00 0.00 92 1011.4
20260506084546 53 263 0.0 0.0 0.00 0.00 0.00 91 1011.5
20260506083043 53 263 0.0 0.0 0.00 0.00 0.00 91 1011.5
20260506081540 53 263 0.0 0.0 0.00 0.00 0.00 91 1011.5
20260506073035 54 263 0.0 0.0 0.00 0.00 0.00 90 1011.6
20260506071532 54 263 0.0 0.0 0.00 0.00 0.00 89 1011.8
20260506061528 55 263 0.0 0.0 0.00 0.00 0.00 87 1011.7
20260506044512 59 262 0.0 2.0 0.00 0.00 0.00 80 1012.1
20260506043009 59 198 0.0 0.0 0.00 0.00 0.00 79 1012.1
20260506041506 60 217 0.0 0.0 0.00 0.00 0.00 77 1012.0
20260506040006 60 247 0.0 0.0 0.00 0.00 0.00 74 1012.0
20260506034504 61 204 0.0 3.0 0.00 0.00 0.00 73 1011.9
20260506033002 62 235 0.0 2.0 0.00 0.00 0.00 71 1011.9
20260506031506 62 262 0.0 2.0 0.00 0.00 0.00 70 1011.8
20260506030003 63 264 0.0 2.0 0.00 0.00 0.00 69 1011.8
20260506024503 63 232 0.0 4.0 0.00 0.00 0.00 69 1011.8
20260506023106 64 265 0.0 2.0 0.00 0.00 0.00 68 1011.8
20260506021601 64 265 0.0 7.0 0.00 0.00 0.00 67 1011.9
20260506014558 64 189 1.0 6.0 0.00 0.00 0.00 66 1011.5
20260506013102 64 263 1.0 10.0 0.00 0.00 0.00 66 1011.3
20260506011622 65 281 0.0 2.0 0.00 0.00 0.00 66 1011.2
20260506010115 65 281 0.0 3.0 0.00 0.00 0.00 64 1011.1
20260506004556 66 281 0.0 2.0 0.00 0.00 0.00 63 1010.9
20260506003057 66 281 0.0 5.0 0.00 0.00 0.00 61 1010.7
20260506001558 67 281 1.0 6.0 0.00 0.00 0.00 61 1010.5
20260506000059 67 281 1.0 9.0 0.00 0.00 0.00 60 1010.3
20260505234553 68 265 1.0 6.0 0.00 0.00 0.00 60 1010.2
20260505233053 68 262 2.0 10.0 0.00 0.00 0.00 58 1009.9
20260505231554 69 264 0.0 5.0 0.00 0.00 0.00 58 1009.7
20260505230058 70 185 2.0 10.0 0.00 0.00 0.00 58 1009.7
20260505224552 70 269 0.0 4.0 0.00 0.00 0.00 58 1009.3
20260505223050 70 190 1.0 6.0 0.00 0.00 0.00 56 1009.2
20260505221600 71 167 1.0 8.0 0.00 0.00 0.00 55 1009.4
20260505220100 71 224 1.0 7.0 0.00 0.00 0.00 54 1009.3
20260505214553 72 272 0.0 5.0 0.00 0.00 0.00 54 1009.2
20260505213048 72 236 1.0 6.0 0.00 0.00 0.00 54 1009.1
20260505211546 73 273 3.0 8.0 0.00 0.00 0.00 54 1009.2
20260505210051 73 284 1.0 9.0 0.00 0.00 0.00 53 1009.0
20260505204554 74 280 1.0 7.0 0.00 0.00 0.00 55 1009.2
20260505203041 74 271 1.0 7.0 0.00 0.00 0.00 56 1009.1
20260505201543 74 262 1.0 10.0 0.00 0.00 0.00 53 1009.4
20260505200039 75 181 4.0 15.0 0.00 0.00 0.00 51 1009.5
20260505194537 75 264 2.0 10.0 0.00 0.00 0.00 54 1009.7
20260505193041 75 276 3.0 8.0 0.00 0.00 0.00 52 1010.0
20260505191532 75 212 3.0 14.0 0.00 0.00 0.00 52 1010.0